Weather in Chumlyak

Russia / Kurgan Oblast     55°18′22″N   62°40′46″E
temp.,
°C
wind,
m/s
gust,
m/s
humid.,
%
clouds,
%
prec.,
mm/h
press.,
hPa
HPBL,
m
21 january, fri
fri2123:00−14ssw3892100 0.0 1024121
02:00−18ssw369523 0.0 102572
05:00−23ssw22996 0.0 102627
08:00−25ssw22995 0.0 102625
11:00−18ssw23885 0.0 102656
14:00−13ssw22825 0.0 102670
17:00−18ssw22915 0.0 10279
20:00−21ssw22926 0.0 102812
22 january, sat
sat2223:00−22ssw22915 0.0 102912
02:00−22sw22915 0.0 102916
05:00−23ssw22925 0.0 103010
08:00−23ssw22915 0.0 10319
11:00−17ssw228279 0.0 103153
14:00−12s238481 0.0 103199
17:00−16s2291100 0.0 10329
20:00−19s2292100 0.0 10339
23 january, sun
sun2323:00−20sw119392 0.0 10349
02:00−22s1194100 0.0 10359
05:00−23wsw119477 0.0 10369
08:00−24ssw119561 0.0 10379
11:00−18se118743 0.0 103828
14:00−12nne008864 0.0 103954
17:00−17wsw119821 0.0 10409
20:00−20ssw1110030 0.0 10419
24 january, mon
mon2423:00−22w1110049 0.0 10439
02:00−22sw2210053 0.0 10439
05:00−22sw2210062 0.0 104413
08:00−21ssw2210070 0.0 104325
11:00−14ssw3591100 0.0 104391
14:00−10ssw3788100 0.0 1042157
17:00−10ssw3889100 0.0 1041132
20:00−11ssw4888100 0.0 1040127
25 january, tue
tue2523:00−12sw3887100 0.0 1039129
02:00−12sw3787100 0.0 1038106
05:00−14w3489100 0.0 103742
08:00−13wsw368799 0.0 103690
11:00−10w3987100 0.0 1035185
14:00−8wnw4985100 0.0 1034317
17:00−11w3591100 0.0 103475
20:00−11wnw3890100 0.0 1034132